SITRO-AIS 27

Last updated on Sat Aug 30 2025 00:03:48 GMT+0000 (Coordinated Universal Time)

1 59068U 24039T 25241.28948581 .00005715 00000+0 48066-3 0 9999 2 59068 95.3837 35.0671 0151808 265.8634 92.5227 14.89888857 81219
UTC large
Height (km)
Speed (km/s)
/
Latitude / Longitude
Inclination (degrees)
Orbital Period (minutes)
Azimuth
Elevation
Range (km)
Doppler Factor

Next 0 passes for location: London (51.5072 / 0.1276)

Sorry there are no passes over London.